Location: Mat�lon
(46.2791°N, 7.1028°E)
Time: 17:09:24
(UTC+00:00)

ARGOS - Pass Details

Date: 18 September 2020
Orbit: 821 x 834 km, 98.4° (Epoch: 30 October)

Event Time Altitude Azimuth Distance (km) Brightness Sun altitude
Rises 19:13:40 0° 178° (S) 3,339 6.1 -17.2°
Reaches altitude 10° 19:16:04 10° 183° (S) 2,412 5.4 -17.6°
Maximum altitude 19:21:17 53° 260° (W) 1,007 3.9 -18.4°
Drops below altitude 10° 19:26:33 10° 337° (NNW) 2,435 6.2 -19.3°
Sets 19:28:59 0° 342° (NNW) 3,374 7.0 -19.7°
